Frederick, OK

1:10 PM CDT on August 22, 2017 (GMT -0500)
Frederick Municipal

Weather History for KFDR - October, 2012

Change the Weather History Date:

Sunday, October 21, 2012

  Actual Average (KLTS) Record (KLTS)
Temperature  
Mean Temperature 81 °F -  
Max Temperature 97 °F 71 °F 95 °F (2012)
Min Temperature 66 °F 48 °F 35 °F (1999)
Cooling Degree Days 16    
Growing Degree Days 31 (Base 50)    
Moisture  
Dew Point 60 °F    
Average Humidity 55    
Maximum Humidity 87    
Minimum Humidity 23    
Precipitation  
Precipitation 0.00 in - - ()
Sea Level Pressure  
Sea Level Pressure 29.66 in    
Wind  
Wind Speed 14 mph (South)    
Max Wind Speed 25 mph    
Max Gust Speed 31 mph    
Visibility 10 miles    
Events      
Averages and records for this station are not official NWS values.
T = Trace of Precipitation, MM = Missing Value Source: NWS Daily Summary

Daily Weather History Graph

Daily Weather History Graph

Search for Another Location

Airport or City:

Trip Planner

Search our weather history database for the weather conditions in past years. The results will help you decide how hot, cold, wet, or windy it might be!

Date:

Astronomy

Oct. 21, 2012 Rise Set
Actual Time 7:46 AM CDT 6:53 PM CDT
Civil Twilight 7:21 AM CDT 7:19 PM CDT
Nautical Twilight 6:51 AM CDT 7:48 PM CDT
Astronomical Twilight 6:22 AM CDT 8:17 PM CDT
Moon 2:03 PM CDT (10/21) No Moon Set
Length of Visible Light 11h 57m
Length of Day
11h 06m
Waxing Crescent, 45% of the Moon is Illuminated
Oct 21
Waxing Crescent
Oct 21
First Quarter
Oct 29
Full
Nov 6
Last Quarter
Nov 13
New

Hourly Weather History & Observations

Time (CDT) Temp. Heat Index Dew Point Humidity Pressure Visibility Wind Dir Wind Speed Gust Speed Precip Events Conditions
12:53 AM 66.0 °F - 55.9 °F 70% 29.63 in 10.0 mi South 11.5 mph - N/A   Clear
1:53 AM 66.9 °F - 57.0 °F 70% 29.63 in 10.0 mi South 10.4 mph - N/A   Clear
2:53 AM 66.9 °F - 57.9 °F 73% 29.64 in 10.0 mi South 9.2 mph - N/A   Clear
3:53 AM 66.9 °F - 59.0 °F 76% 29.63 in 10.0 mi South 10.4 mph - N/A   Clear
5:53 AM 66.9 °F - 61.0 °F 81% 29.65 in 10.0 mi South 9.2 mph - N/A   Clear
6:53 AM 66.9 °F - 62.1 °F 84% 29.67 in 10.0 mi South 9.2 mph - N/A   Clear
7:53 AM 66.0 °F - 62.1 °F 87% 29.68 in 10.0 mi SSE 9.2 mph - N/A   Clear
8:53 AM 69.1 °F - 64.0 °F 84% 29.71 in 10.0 mi South 9.2 mph - N/A   Clear
9:53 AM 78.1 °F - 64.0 °F 62% 29.72 in 10.0 mi SSW 17.3 mph 23.0 mph N/A   Clear
10:53 AM 82.0 °F 83.4 °F 64.0 °F 54% 29.72 in 10.0 mi SSW 25.3 mph 31.1 mph N/A   Clear
11:53 AM 86.0 °F 86.8 °F 63.0 °F 46% 29.69 in 10.0 mi SSW 24.2 mph 29.9 mph N/A   Clear
12:53 PM 89.1 °F 89.3 °F 62.1 °F 40% 29.68 in 10.0 mi SSW 24.2 mph - N/A   Clear
1:53 PM 93.0 °F 92.7 °F 60.1 °F 33% 29.66 in 10.0 mi SW 21.9 mph 29.9 mph N/A   Clear
2:53 PM 95.0 °F 93.7 °F 57.0 °F 28% 29.62 in 10.0 mi SSW 20.7 mph 27.6 mph N/A   Clear
3:53 PM 96.1 °F 95.6 °F 59.0 °F 29% 29.61 in 10.0 mi South 23.0 mph 27.6 mph N/A   Clear
4:53 PM 96.1 °F 93.5 °F 53.1 °F 23% 29.61 in 10.0 mi SSW 23.0 mph 28.8 mph N/A   Clear
5:53 PM 93.9 °F 91.7 °F 54.0 °F 26% 29.61 in 10.0 mi SSW 17.3 mph - N/A   Clear
6:53 PM 88.0 °F 87.9 °F 61.0 °F 40% 29.62 in 10.0 mi South 13.8 mph - N/A   Clear
7:53 PM 82.0 °F 82.7 °F 61.0 °F 49% 29.65 in 10.0 mi South 11.5 mph - N/A   Clear
8:53 PM 81.0 °F 81.7 °F 61.0 °F 50% 29.66 in 10.0 mi South 12.7 mph - N/A   Clear
9:53 PM 79.0 °F - 61.0 °F 54% 29.68 in 10.0 mi South 13.8 mph - N/A   Clear
10:53 PM 79.0 °F - 63.0 °F 58% 29.68 in 10.0 mi South 15.0 mph - N/A   Clear
11:53 PM 79.0 °F - 63.0 °F 58% 29.70 in 10.0 mi South 16.1 mph - N/A   Clear